PHOENIX

Last updated on Tue Jun 14 2022 01:02:05 GMT+0100 (British Summer Time)

1 45258U 98067RB 22163.82960323 .11428466 12633-4 25365-3 0 9996 2 45258 51.6194 294.3376 0009579 296.6520 63.3527 16.45855778131755

Satellite not in orbit